TimeEDT,TemperatureF,Dew PointF,Humidity,Sea Level PressureIn,VisibilityMPH,Wind Direction,Wind SpeedMPH,Gust SpeedMPH,PrecipitationIn,Events,Conditions,WindDirDegrees,DateUTC
12:10 AM,71.6,68.0,88,30.10,10.0,South,6.9,-,N/A,,Overcast,190,2013-07-02 04:10:00
12:26 AM,71.6,68.0,88,30.10,10.0,South,8.1,-,N/A,,Overcast,190,2013-07-02 04:26:00
12:52 AM,71.1,68.0,90,30.10,10.0,SSW,8.1,-,N/A,,Overcast,200,2013-07-02 04:52:00
1:42 AM,69.8,68.0,94,30.10,10.0,South,6.9,-,N/A,,Overcast,190,2013-07-02 05:42:00
1:52 AM,71.1,68.0,90,30.11,10.0,SSW,5.8,-,N/A,,Overcast,210,2013-07-02 05:52:00
2:52 AM,71.1,68.0,90,30.11,10.0,SW,5.8,-,N/A,,Overcast,220,2013-07-02 06:52:00
3:41 AM,71.6,68.0,88,30.11,10.0,SSW,5.8,-,N/A,,Overcast,200,2013-07-02 07:41:00
3:52 AM,71.1,68.0,90,30.12,10.0,SW,4.6,-,N/A,,Overcast,220,2013-07-02 07:52:00
4:39 AM,71.6,68.0,88,30.12,8.0,SSW,6.9,-,0.00,Rain,Light Rain,200,2013-07-02 08:39:00
4:50 AM,71.6,68.0,88,30.12,10.0,SSW,4.6,-,0.00,Rain,Light Rain,210,2013-07-02 08:50:00
4:52 AM,71.1,69.1,93,30.12,10.0,SSW,4.6,-,0.00,Rain,Light Rain,200,2013-07-02 08:52:00
5:07 AM,71.6,69.8,94,30.12,10.0,South,4.6,-,0.00,,Overcast,180,2013-07-02 09:07:00
5:52 AM,71.1,69.1,93,30.14,10.0,SSW,4.6,-,0.00,,Overcast,200,2013-07-02 09:52:00
6:52 AM,72.0,69.1,91,30.15,10.0,SSW,9.2,-,N/A,,Overcast,210,2013-07-02 10:52:00
7:12 AM,71.6,69.8,94,30.15,10.0,South,6.9,-,N/A,,Overcast,190,2013-07-02 11:12:00
7:52 AM,72.0,69.1,91,30.16,10.0,South,9.2,-,N/A,,Mostly Cloudy,190,2013-07-02 11:52:00
8:52 AM,72.0,69.1,91,30.17,10.0,South,6.9,-,0.00,Rain,Light Rain,190,2013-07-02 12:52:00
10:52 AM,73.9,69.1,85,30.17,10.0,SSW,8.1,-,N/A,,Overcast,200,2013-07-02 14:52:00
11:52 AM,75.9,70.0,82,30.17,10.0,South,8.1,-,N/A,,Overcast,190,2013-07-02 15:52:00
12:09 PM,77.0,69.8,78,30.17,10.0,Variable,5.8,-,N/A,,Overcast,0,2013-07-02 16:09:00
12:52 PM,77.0,69.1,76,30.17,10.0,South,6.9,-,N/A,,Mostly Cloudy,190,2013-07-02 16:52:00
1:35 PM,78.8,69.8,74,30.17,10.0,South,10.4,-,N/A,,Mostly Cloudy,190,2013-07-02 17:35:00
1:52 PM,77.0,68.0,74,30.17,10.0,SSW,6.9,19.6,N/A,,Overcast,200,2013-07-02 17:52:00
2:52 PM,79.0,69.1,72,30.16,10.0,South,9.2,18.4,N/A,,Mostly Cloudy,190,2013-07-02 18:52:00
3:04 PM,80.6,69.8,70,30.16,10.0,South,11.5,18.4,N/A,,Mostly Cloudy,190,2013-07-02 19:04:00
3:25 PM,80.6,69.8,70,30.16,10.0,South,11.5,16.1,N/A,,Mostly Cloudy,180,2013-07-02 19:25:00
3:52 PM,80.1,69.1,69,30.14,10.0,South,9.2,-,N/A,,Mostly Cloudy,170,2013-07-02 19:52:00
4:01 PM,80.6,69.8,70,30.15,10.0,South,8.1,-,N/A,,Mostly Cloudy,180,2013-07-02 20:01:00
4:13 PM,80.6,69.8,70,30.14,10.0,South,6.9,-,N/A,,Scattered Clouds,180,2013-07-02 20:13:00
4:52 PM,81.0,69.1,67,30.14,10.0,South,9.2,-,N/A,,Scattered Clouds,180,2013-07-02 20:52:00
5:52 PM,79.0,69.1,72,30.16,10.0,South,6.9,-,N/A,,Mostly Cloudy,190,2013-07-02 21:52:00
6:43 PM,69.8,64.4,83,30.18,10.0,Calm,Calm,-,N/A,,Overcast,0,2013-07-02 22:43:00
6:52 PM,69.1,64.9,87,30.18,10.0,Variable,3.5,-,N/A,,Mostly Cloudy,0,2013-07-02 22:52:00
7:01 PM,69.8,64.4,83,30.18,9.0,Calm,Calm,-,N/A,,Mostly Cloudy,0,2013-07-02 23:01:00
7:43 PM,66.2,64.4,94,30.19,5.0,Calm,Calm,-,N/A,,Overcast,0,2013-07-02 23:43:00
7:52 PM,66.0,64.0,93,30.20,5.0,Variable,3.5,-,N/A,,Overcast,0,2013-07-02 23:52:00
8:52 PM,66.0,63.0,90,30.21,6.0,Calm,Calm,-,N/A,,Overcast,0,2013-07-03 00:52:00
9:52 PM,64.9,63.0,93,30.22,6.0,Calm,Calm,-,N/A,,Overcast,0,2013-07-03 01:52:00
10:52 PM,64.9,63.0,93,30.21,5.0,Calm,Calm,-,0.01,,Overcast,0,2013-07-03 02:52:00
11:42 PM,64.4,62.6,94,30.23,5.0,Variable,4.6,-,N/A,,Overcast,0,2013-07-03 03:42:00
11:52 PM,64.0,63.0,96,30.23,2.5,Variable,6.9,-,N/A,,Overcast,0,2013-07-03 03:52:00
11:56 PM,62.6,62.6,100,30.23,1.2,North,4.6,-,N/A,,Overcast,10,2013-07-03 03:56:00